When you browse on this site, cookies collect data to enhance your experience and personalize the content and advertising you see.
Visit our Privacy Policy to learn more. By continuing to use the site, you agree to this use of cookies and data.
  • In Lithuania
  • List of Countries
  • For 7 days
  • Water Temperature
  • Satellite Maps
  • Weather Map
  • Weather Widgets
  • user-avatar
    Login

    Hourly Weather Pocatello

    Today, 18 November, Sunday

    Time Temperature Precipitation Wind Pressure Humidity
    00:00 -4°C° 0 mm 1 mps 638 mmHg 57%
    01:00 -4°C° 0 mm 1 mps 638 mmHg 58%
    02:00 -4°C° 0 mm 1 mps 638 mmHg 59%
    03:00 -6°C° 0 mm 1 mps 638 mmHg 59%
    04:00 -6°C° 0 mm 1 mps 638 mmHg 59%
    05:00 -7°C° 0 mm 1 mps 638 mmHg 63%
    06:00 -6°C° 0 mm 1 mps 638 mmHg 63%
    07:00 -6°C° 0 mm 1 mps 638 mmHg 63%
    08:00 -6°C° 0 mm 1 mps 638 mmHg 63%
    09:00 -3°C° 0 mm 1 mps 638 mmHg 55%
    10:00 0°C° 0 mm 1 mps 639 mmHg 46%
    11:00 +2°C° 0 mm 1 mps 639 mmHg 38%
    12:00 +3°C° 0 mm 1 mps 639 mmHg 35%
    13:00 +4°C° 0 mm 1 mps 638 mmHg 33%
    14:00 +4°C° 0 mm 2 mps 638 mmHg 30%
    15:00 +3°C° 0 mm 1 mps 638 mmHg 34%
    16:00 +2°C° 0 mm 1 mps 637 mmHg 37%
    17:00 0°C° 0 mm 1 mps 637 mmHg 41%
    18:00 0°C° 0 mm 1 mps 637 mmHg 44%
    19:00 -1°C° 0 mm 1 mps 637 mmHg 47%
    20:00 -4°C° 0 mm 2 mps 637 mmHg 50%
    21:00 -4°C° 0 mm 2 mps 637 mmHg 52%
    22:00 -4°C° 0 mm 2 mps 637 mmHg 53%
    23:00 -5°C° 0 mm 2 mps 637 mmHg 55%

    Tomorrow, 19 November, Monday

    Time Temperature Precipitation Wind Pressure Humidity
    00:00 -5°C° 0 mm 2 mps 637 mmHg 55%
    01:00 -5°C° 0 mm 2 mps 637 mmHg 55%
    02:00 -5°C° 0 mm 2 mps 637 mmHg 55%
    03:00 -5°C° 0 mm 2 mps 637 mmHg 55%
    04:00 -6°C° 0 mm 2 mps 637 mmHg 55%
    05:00 -6°C° 0 mm 2 mps 637 mmHg 55%
    06:00 -6°C° 0 mm 2 mps 637 mmHg 54%
    07:00 -6°C° 0 mm 2 mps 638 mmHg 54%
    08:00 -5°C° 0 mm 2 mps 638 mmHg 53%
    09:00 -3°C° 0 mm 2 mps 638 mmHg 47%
    10:00 +1°C° 0 mm 1 mps 639 mmHg 40%
    11:00 +4°C° 0 mm 1 mps 639 mmHg 33%
    12:00 +5°C° 0 mm 1 mps 639 mmHg 32%
    13:00 +6°C° 0 mm 1 mps 639 mmHg 30%
    14:00 +7°C° 0 mm 1 mps 638 mmHg 29%
    15:00 +5°C° 0 mm 1 mps 638 mmHg 32%
    16:00 +4°C° 0 mm 1 mps 637 mmHg 35%
    17:00 +2°C° 0 mm 1 mps 637 mmHg 38%
    18:00 +1°C° 0 mm 1 mps 637 mmHg 40%
    19:00 +1°C° 0 mm 1 mps 637 mmHg 42%
    20:00 -2°C° 0 mm 2 mps 637 mmHg 43%
    21:00 -2°C° 0 mm 2 mps 637 mmHg 44%
    22:00 -2°C° 0 mm 2 mps 637 mmHg 45%
    23:00 -3°C° 0 mm 2 mps 637 mmHg 46%

    Day after tomorrow, 20 November, Tuesday

    Time Temperature Precipitation Wind Pressure Humidity
    00:00 -3°C° 0 mm 2 mps 637 mmHg 46%
    01:00 -3°C° 0 mm 2 mps 637 mmHg 46%
    02:00 -3°C° 0 mm 2 mps 637 mmHg 46%
    03:00 -4°C° 0 mm 2 mps 637 mmHg 46%
    04:00 -4°C° 0 mm 2 mps 636 mmHg 46%
    05:00 -4°C° 0 mm 2 mps 636 mmHg 46%
    06:00 -4°C° 0 mm 2 mps 636 mmHg 45%
    07:00 -4°C° 0 mm 2 mps 636 mmHg 44%
    08:00 -4°C° 0 mm 2 mps 636 mmHg 44%
    09:00 -1°C° 0 mm 2 mps 637 mmHg 38%
    10:00 +2°C° 0 mm 2 mps 637 mmHg 33%
    11:00 +5°C° 0 mm 2 mps 637 mmHg 28%
    12:00 +6°C° 0 mm 2 mps 637 mmHg 26%
    13:00 +7°C° 0 mm 2 mps 637 mmHg 25%
    14:00 +9°C° 0 mm 1 mps 636 mmHg 23%
    15:00 +6°C° 0 mm 2 mps 636 mmHg 25%
    16:00 +5°C° 0 mm 2 mps 635 mmHg 27%
    17:00 +3°C° 0 mm 2 mps 635 mmHg 29%
    18:00 +2°C° 0 mm 2 mps 635 mmHg 31%
    19:00 +2°C° 0 mm 2 mps 635 mmHg 32%
    20:00 +1°C° 0 mm 2 mps 635 mmHg 33%
    21:00 -1°C° 0 mm 2 mps 635 mmHg 34%
    22:00 -1°C° 0 mm 2 mps 635 mmHg 34%
    23:00 -2°C° 0 mm 2 mps 635 mmHg 34%

    21 November, Wednesday

    Time Temperature Precipitation Wind Pressure Humidity
    00:00 -2°C° 0 mm 2 mps 635 mmHg 34%
    01:00 -2°C° 0 mm 2 mps 635 mmHg 35%
    02:00 -3°C° 0 mm 2 mps 635 mmHg 35%
    03:00 -3°C° 0 mm 2 mps 635 mmHg 35%
    04:00 -3°C° 0 mm 2 mps 635 mmHg 35%
    05:00 -3°C° 0 mm 2 mps 634 mmHg 36%
    06:00 -3°C° 0 mm 2 mps 635 mmHg 35%
    07:00 -3°C° 0 mm 2 mps 635 mmHg 34%
    08:00 -4°C° 0 mm 3 mps 635 mmHg 34%
    09:00 -1°C° 0 mm 3 mps 635 mmHg 29%
    10:00 +2°C° 0 mm 3 mps 636 mmHg 25%
    11:00 +5°C° 0 mm 3 mps 636 mmHg 21%
    12:00 +7°C° 0 mm 3 mps 636 mmHg 20%
    13:00 +8°C° 0 mm 3 mps 635 mmHg 19%
    14:00 +9°C° 0 mm 3 mps 635 mmHg 18%
    15:00 +8°C° 0 mm 3 mps 634 mmHg 21%
    16:00 +5°C° 0 mm 3 mps 634 mmHg 24%
    17:00 +4°C° 0 mm 2 mps 633 mmHg 27%
    18:00 +4°C° 0 mm 2 mps 633 mmHg 28%
    19:00 +2°C° 0 mm 3 mps 633 mmHg 30%
    20:00 +2°C° 0 mm 3 mps 633 mmHg 31%
    21:00 +2°C° 0 mm 3 mps 632 mmHg 31%
    22:00 +2°C° 0 mm 3 mps 632 mmHg 32%
    23:00 +2°C° 0 mm 3 mps 632 mmHg 33%

    22 November, Thursday

    Time Temperature Precipitation Wind Pressure Humidity
    00:00 +2°C° 0 mm 3 mps 632 mmHg 34%
    01:00 +2°C° 0 mm 3 mps 631 mmHg 35%
    02:00 +2°C° 0 mm 3 mps 631 mmHg 36%
    03:00 +2°C° 0.1 mm 3 mps 631 mmHg 38%
    04:00 +2°C° 0.1 mm 3 mps 631 mmHg 40%
    05:00 +2°C° 0.1 mm 3 mps 630 mmHg 42%
    06:00 +1°C° 0.5 mm 3 mps 630 mmHg 52%
    07:00 +1°C° 0.5 mm 3 mps 630 mmHg 63%
    08:00 0°C° 0.5 mm 4 mps 631 mmHg 74%
    09:00 0°C° 0.4 mm 4 mps 631 mmHg 76%
    10:00 +1°C° 0.4 mm 5 mps 631 mmHg 79%
    11:00 +1°C° 0.4 mm 5 mps 631 mmHg 82%
    12:00 +1°C° 0.3 mm 6 mps 631 mmHg 79%
    13:00 +2°C° 0.3 mm 7 mps 631 mmHg 77%
    14:00 +2°C° 0.3 mm 7 mps 631 mmHg 74%
    15:00 0°C° 0 mm 7 mps 631 mmHg 76%
    16:00 +1°C° 0 mm 6 mps 631 mmHg 77%
    17:00 0°C° 0 mm 5 mps 631 mmHg 79%
    18:00 -1°C° 0 mm 5 mps 631 mmHg 81%
    19:00 -1°C° 0 mm 4 mps 631 mmHg 83%
    20:00 -2°C° 0 mm 4 mps 631 mmHg 85%
    21:00 -2°C° 0 mm 4 mps 631 mmHg 84%
    22:00 -2°C° 0 mm 5 mps 631 mmHg 82%
    23:00 -2°C° 0 mm 5 mps 631 mmHg 81%

    23 November, Friday

    Time Temperature Precipitation Wind Pressure Humidity
    00:00 -1°C° 0.2 mm 5 mps 631 mmHg 80%
    01:00 -2°C° 0.2 mm 6 mps 631 mmHg 80%
    02:00 -2°C° 0.2 mm 6 mps 631 mmHg 79%
    03:00 -2°C° 0.2 mm 6 mps 630 mmHg 79%
    04:00 -2°C° 0.2 mm 6 mps 630 mmHg 79%
    05:00 -2°C° 0.2 mm 6 mps 630 mmHg 79%
    06:00 -2°C° 0.3 mm 6 mps 630 mmHg 81%
    07:00 -1°C° 0.3 mm 5 mps 631 mmHg 84%
    08:00 -1°C° 0.3 mm 5 mps 631 mmHg 86%
    09:00 -1°C° 0.5 mm 5 mps 631 mmHg 85%
    10:00 -1°C° 0.5 mm 5 mps 631 mmHg 84%
    11:00 0°C° 0.5 mm 5 mps 631 mmHg 83%
    12:00 0°C° 0.3 mm 5 mps 631 mmHg 81%
    13:00 0°C° 0.3 mm 5 mps 631 mmHg 80%
    14:00 +1°C° 0.3 mm 6 mps 630 mmHg 78%
    15:00 0°C° 0.2 mm 5 mps 630 mmHg 81%
    16:00 0°C° 0.2 mm 4 mps 630 mmHg 83%
    17:00 0°C° 0.2 mm 3 mps 630 mmHg 86%
    18:00 0°C° 0.2 mm 3 mps 630 mmHg 88%
    19:00 -1°C° 0.2 mm 3 mps 630 mmHg 90%
    20:00 -1°C° 0.2 mm 3 mps 630 mmHg 92%
    21:00 -1°C° 0.1 mm 3 mps 630 mmHg 92%
    22:00 -1°C° 0.1 mm 3 mps 629 mmHg 91%
    23:00 -1°C° 0.1 mm 3 mps 629 mmHg 91%
    Show more